Погода в Малодорах

Россия / Архангельская область     60°57′46″N   43°20′12″E
темп.,
°C
ветер,
м/с
пор.,
м/с
влажн.,
%
обл.,
%
осадки,
мм/ч
давл.,
гПа
погр.,
м
7 августа, вс
вс700:00+19ю3117423 0.0 1017222
03:00+17ююв311770 0.0 1017225
06:00+19ю413703 0.0 1016387
09:00+25ю59510 0.0 1015650
12:00+29ююз59430 0.0 10141768
15:00+28юз4847100 0.1 10132250
18:00+16сз499651 8.6 1016423
21:00+14ююз1196100 9.1 101820
8 августа, пн
пн800:00+13з259692 0.0 1018165
03:00+14з1494100 0.0 1020181
06:00+13зсз2491100 0.0 1022199
09:00+17зсз2358100 0.0 1022733
12:00+21зсз2341100 0.0 10221668
15:00+22сз23379 0.0 10221983
18:00+21ссз135098 0.0 1022158
21:00+15с1268100 0.0 102312
9 августа, вт
вт900:00+12св127791 0.0 102413
03:00+12всв1176100 0.0 102416
06:00+13всв12728 0.0 102588
09:00+19всв2352100 0.0 1024620
12:00+21всв3442100 0.0 10241832
15:00+21всв3444100 0.0 10231751
18:00+19св2658100 0.0 1023347
21:00+14св2770100 0.0 1023145
10 августа, ср
ср1000:00+13св2966100 0.0 1022205
03:00+14св2867100 0.0 1022218
06:00+13св2572100 0.0 1022174
09:00+17всв246356 0.0 1021548
12:00+21всв244552 0.0 10202072
15:00+19с1256100 0.0 101946
18:00+17ссв2464100 0.0 1019121
21:00+15в0071100 0.0 101911
11 августа, чт
чт1100:00+15сз1172100 0.0 101914
03:00+13с117784 0.0 101914
06:00+15с117474 0.0 102059
09:00+20сз234856 0.0 1020617
12:00+23зсз333571 0.0 10192513
15:00+23з363558 0.0 10182405
18:00+20зюз2654100 0.0 1017316
21:00+16зюз2867100 0.0 1017240